Precipitable_Water
0.60 0.58 0.55 0.52 0.49 0.46 0.39 0.36 0.35 0.30 0.27 0.27 0.18 0.27 0.18 0.13 0.11 0.23 0.27 0.28 0.22 0.16 0.12 0.14 0.12 0.11 0.14 0.19 0.18 0.20 0.18 0.15 0.17 0.14 0.16 0.13 0.16 0.14 0.13 0.13 0.12 0.14 0.13 0.13 0.13 0.13 0.11 0.12 0.11 0.13 0.14 0.15 0.18 0.22 0.22 0.23 0.20 0.19 0.17 0.19 0.19 0.20 0.15 0.12 0.12 0.15 0.16 0.18 0.20 0.21 0.21 0.21 0.19 0.20 0.21 0.20 0.17 0.18 0.17 0.17 0.18 0.16 0.16 0.16 0.16 0.13 0.13
0.60 0.57 0.53 0.50 0.45 0.39 0.36 0.35 0.33 0.29 0.26 0.22 0.26 0.19 0.13 0.15 0.15 0.20 0.26 0.26 0.23 0.13 0.08 0.08 0.10 0.11 0.14 0.15 0.13 0.18 0.16 0.15 0.12 0.13 0.14 0.12 0.13 0.12 0.12 0.14 0.16 0.12 0.16 0.15 0.12 0.14 0.10 0.13 0.13 0.13 0.16 0.14 0.24 0.23 0.22 0.23 0.18 0.17 0.16 0.15 0.21 0.14 0.15 0.14 0.11 0.10 0.11 0.13 0.16 0.17 0.20 0.20 0.18 0.17 0.19 0.20 0.20 0.20 0.20 0.20 0.19 0.16 0.15 0.17 0.16 0.12 0.14
0.59 0.54 0.48 0.44 0.40 0.37 0.35 0.33 0.30 0.27 0.26 0.29 0.26 0.15 0.17 0.16 0.20 0.20 0.23 0.23 0.18 0.10 0.13 0.11 0.10 0.10 0.10 0.10 0.09 0.11 0.13 0.16 0.15 0.14 0.12 0.16 0.13 0.12 0.11 0.13 0.14 0.13 0.16 0.14 0.15 0.15 0.12 0.11 0.14 0.14 0.14 0.14 0.22 0.22 0.21 0.23 0.19 0.22 0.23 0.21 0.23 0.16 0.15 0.13 0.10 0.08 0.07 0.07 0.08 0.10 0.12 0.15 0.17 0.18 0.19 0.20 0.19 0.19 0.18 0.16 0.17 0.14 0.16 0.17 0.16 0.15 0.17
0.50 0.46 0.43 0.39 0.37 0.35 0.33 0.31 0.29 0.27 0.27 0.32 0.26 0.21 0.15 0.12 0.08 0.14 0.17 0.17 0.17 0.16 0.19 0.15 0.11 0.10 0.09 0.08 0.09 0.11 0.09 0.13 0.16 0.16 0.13 0.15 0.14 0.13 0.14 0.15 0.15 0.12 0.13 0.11 0.11 0.12 0.15 0.12 0.11 0.12 0.12 0.14 0.17 0.20 0.21 0.21 0.20 0.22 0.23 0.22 0.21 0.15 0.16 0.15 0.13 0.12 0.11 0.12 0.14 0.17 0.18 0.17 0.15 0.17 0.18 0.19 0.20 0.20 0.20 0.19 0.16 0.15 0.17 0.16 0.17 0.19 0.18
0.44 0.42 0.39 0.36 0.35 0.33 0.31 0.31 0.31 0.31 0.30 0.31 0.25 0.22 0.16 0.15 0.09 0.12 0.09 0.12 0.14 0.12 0.14 0.13 0.12 0.08 0.11 0.06 0.09 0.07 0.08 0.09 0.10 0.17 0.10 0.14 0.12 0.12 0.12 0.12 0.10 0.11 0.11 0.10 0.10 0.12 0.12 0.14 0.13 0.12 0.12 0.14 0.16 0.21 0.20 0.21 0.22 0.22 0.21 0.22 0.19 0.15 0.13 0.14 0.15 0.14 0.15 0.16 0.16 0.18 0.18 0.16 0.16 0.17 0.17 0.19 0.19 0.20 0.19 0.17 0.16 0.19 0.18 0.15 0.18 0.21 0.19
0.39 0.38 0.36 0.34 0.32 0.31 0.31 0.33 0.33 0.32 0.31 0.29 0.25 0.13 0.16 0.10 0.13 0.14 0.14 0.08 0.08 0.07 0.07 0.12 0.09 0.10 0.10 0.07 0.10 0.07 0.07 0.08 0.07 0.11 0.14 0.15 0.15 0.09 0.10 0.11 0.11 0.10 0.10 0.10 0.08 0.10 0.10 0.11 0.10 0.13 0.13 0.13 0.15 0.15 0.20 0.18 0.21 0.21 0.19 0.22 0.17 0.15 0.12 0.14 0.15 0.14 0.16 0.17 0.17 0.19 0.18 0.18 0.18 0.18 0.19 0.19 0.20 0.20 0.18 0.18 0.20 0.21 0.18 0.16 0.19 0.21 0.20
0.37 0.36 0.34 0.32 0.32 0.33 0.34 0.34 0.33 0.32 0.30 0.28 0.19 0.11 0.16 0.14 0.13 0.12 0.16 0.08 0.09 0.08 0.09 0.11 0.09 0.08 0.09 0.08 0.08 0.07 0.07 0.06 0.08 0.08 0.08 0.10 0.10 0.11 0.06 0.08 0.10 0.11 0.12 0.10 0.08 0.10 0.07 0.07 0.11 0.11 0.12 0.12 0.13 0.12 0.14 0.19 0.22 0.20 0.18 0.19 0.20 0.17 0.14 0.15 0.16 0.15 0.16 0.17 0.18 0.19 0.18 0.18 0.18 0.19 0.20 0.20 0.20 0.20 0.20 0.20 0.21 0.21 0.20 0.21 0.21 0.21 0.21
0.35 0.33 0.33 0.34 0.34 0.33 0.33 0.32 0.32 0.30 0.29 0.25 0.16 0.17 0.11 0.10 0.09 0.08 0.12 0.10 0.09 0.10 0.11 0.10 0.09 0.07 0.08 0.06 0.07 0.07 0.07 0.06 0.08 0.10 0.08 0.07 0.08 0.14 0.09 0.09 0.11 0.12 0.12 0.11 0.09 0.10 0.11 0.10 0.09 0.12 0.13 0.12 0.13 0.12 0.13 0.14 0.20 0.21 0.17 0.18 0.20 0.17 0.14 0.21 0.18 0.15 0.14 0.17 0.18 0.19 0.19 0.18 0.17 0.18 0.20 0.21 0.21 0.21 0.21 0.21 0.22 0.23 0.22 0.22 0.22 0.21 0.21
0.34 0.34 0.33 0.32 0.31 0.31 0.31 0.31 0.31 0.28 0.29 0.16 0.15 0.16 0.17 0.19 0.17 0.14 0.08 0.07 0.08 0.10 0.10 0.09 0.08 0.06 0.08 0.06 0.07 0.08 0.08 0.08 0.10 0.09 0.12 0.09 0.08 0.11 0.09 0.11 0.11 0.13 0.12 0.12 0.11 0.13 0.13 0.13 0.13 0.15 0.14 0.11 0.15 0.13 0.13 0.17 0.15 0.18 0.17 0.18 0.19 0.19 0.16 0.18 0.16 0.14 0.13 0.17 0.17 0.18 0.19 0.19 0.18 0.17 0.19 0.20 0.20 0.19 0.20 0.21 0.23 0.22 0.20 0.21 0.21 0.20 0.20
0.33 0.32 0.31 0.30 0.30 0.30 0.29 0.29 0.30 0.28 0.29 0.18 0.17 0.13 0.21 0.18 0.22 0.21 0.12 0.07 0.11 0.08 0.11 0.10 0.08 0.05 0.08 0.08 0.08 0.09 0.09 0.11 0.12 0.09 0.14 0.15 0.15 0.13 0.12 0.12 0.12 0.11 0.12 0.10 0.12 0.15 0.16 0.16 0.18 0.19 0.18 0.19 0.18 0.18 0.18 0.18 0.17 0.17 0.17 0.20 0.18 0.18 0.17 0.16 0.16 0.13 0.13 0.17 0.18 0.17 0.18 0.17 0.16 0.17 0.19 0.20 0.21 0.22 0.23 0.23 0.24 0.23 0.24 0.21 0.19 0.20 0.24
0.31 0.30 0.30 0.29 0.29 0.28 0.28 0.28 0.28 0.27 0.24 0.16 0.15 0.14 0.19 0.13 0.12 0.13 0.13 0.07 0.08 0.09 0.08 0.08 0.07 0.08 0.10 0.12 0.10 0.12 0.11 0.12 0.13 0.08 0.08 0.15 0.15 0.18 0.16 0.14 0.12 0.10 0.11 0.14 0.21 0.22 0.21 0.21 0.21 0.21 0.20 0.19 0.19 0.19 0.20 0.20 0.21 0.20 0.19 0.18 0.19 0.20 0.19 0.17 0.18 0.14 0.14 0.16 0.17 0.18 0.16 0.12 0.14 0.21 0.23 0.22 0.20 0.21 0.20 0.20 0.22 0.24 0.24 0.23 0.24 0.25 0.27
0.28 0.27 0.27 0.26 0.26 0.26 0.26 0.27 0.27 0.27 0.24 0.20 0.20 0.17 0.21 0.21 0.16 0.13 0.10 0.06 0.06 0.10 0.08 0.07 0.08 0.09 0.09 0.12 0.12 0.11 0.10 0.11 0.12 0.13 0.09 0.12 0.15 0.17 0.17 0.15 0.14 0.10 0.19 0.25 0.24 0.22 0.22 0.21 0.19 0.19 0.18 0.19 0.19 0.19 0.20 0.19 0.21 0.23 0.23 0.21 0.20 0.20 0.20 0.18 0.19 0.16 0.14 0.17 0.17 0.14 0.11 0.13 0.20 0.23 0.24 0.24 0.23 0.23 0.21 0.22 0.23 0.24 0.25 0.25 0.25 0.26 0.27
0.25 0.25 0.25 0.25 0.25 0.25 0.24 0.24 0.25 0.25 0.26 0.24 0.21 0.15 0.22 0.26 0.17 0.12 0.10 0.08 0.06 0.08 0.07 0.08 0.11 0.11 0.13 0.14 0.12 0.12 0.14 0.15 0.16 0.16 0.16 0.14 0.14 0.16 0.18 0.15 0.14 0.15 0.24 0.21 0.20 0.19 0.13 0.12 0.13 0.14 0.15 0.18 0.19 0.20 0.20 0.20 0.21 0.24 0.25 0.25 0.22 0.20 0.19 0.19 0.18 0.18 0.18 0.16 0.15 0.11 0.12 0.18 0.21 0.22 0.23 0.24 0.24 0.24 0.22 0.21 0.24 0.26 0.25 0.26 0.25 0.27 0.28
0.25 0.25 0.25 0.25 0.24 0.24 0.24 0.24 0.24 0.26 0.26 0.24 0.19 0.19 0.23 0.23 0.15 0.14 0.12 0.09 0.08 0.11 0.11 0.10 0.12 0.12 0.13 0.12 0.12 0.13 0.14 0.14 0.15 0.17 0.13 0.19 0.15 0.15 0.18 0.20 0.21 0.24 0.23 0.23 0.18 0.15 0.12 0.13 0.10 0.11 0.12 0.14 0.15 0.15 0.19 0.22 0.24 0.24 0.25 0.26 0.26 0.23 0.22 0.21 0.17 0.19 0.15 0.15 0.15 0.14 0.18 0.17 0.19 0.19 0.20 0.22 0.20 0.21 0.20 0.17 0.20 0.25 0.26 0.27 0.27 0.26 0.23
0.23 0.22 0.21 0.21 0.21 0.22 0.23 0.23 0.25 0.26 0.27 0.26 0.24 0.23 0.25 0.25 0.22 0.19 0.19 0.15 0.11 0.12 0.12 0.09 0.13 0.12 0.12 0.13 0.14 0.12 0.12 0.13 0.12 0.12 0.18 0.20 0.17 0.19 0.19 0.22 0.26 0.24 0.24 0.19 0.15 0.16 0.13 0.13 0.11 0.10 0.11 0.11 0.10 0.12 0.21 0.19 0.25 0.27 0.27 0.27 0.27 0.26 0.21 0.22 0.18 0.17 0.19 0.15 0.13 0.13 0.13 0.12 0.16 0.20 0.23 0.25 0.25 0.25 0.24 0.22 0.19 0.25 0.28 0.29 0.24 0.20 0.20
0.22 0.22 0.23 0.24 0.25 0.26 0.27 0.29 0.30 0.32 0.33 0.33 0.29 0.27 0.28 0.30 0.30 0.24 0.21 0.17 0.14 0.10 0.14 0.15 0.16 0.14 0.13 0.14 0.16 0.13 0.12 0.12 0.12 0.13 0.13 0.14 0.16 0.20 0.23 0.25 0.26 0.25 0.22 0.19 0.17 0.15 0.15 0.12 0.11 0.12 0.12 0.13 0.16 0.16 0.15 0.19 0.19 0.24 0.27 0.27 0.26 0.26 0.24 0.22 0.19 0.17 0.17 0.16 0.14 0.13 0.12 0.14 0.19 0.20 0.23 0.25 0.26 0.25 0.25 0.21 0.17 0.25 0.26 0.23 0.22 0.20 0.20
0.26 0.28 0.29 0.30 0.31 0.32 0.33 0.35 0.36 0.36 0.36 0.34 0.29 0.27 0.26 0.32 0.28 0.24 0.20 0.18 0.15 0.13 0.18 0.21 0.20 0.19 0.17 0.15 0.17 0.15 0.15 0.13 0.13 0.11 0.10 0.12 0.16 0.18 0.20 0.24 0.26 0.24 0.21 0.18 0.17 0.16 0.15 0.15 0.16 0.15 0.16 0.18 0.16 0.15 0.17 0.18 0.16 0.17 0.23 0.24 0.23 0.21 0.21 0.21 0.18 0.17 0.17 0.16 0.14 0.13 0.15 0.15 0.19 0.22 0.24 0.26 0.26 0.26 0.22 0.14 0.14 0.23 0.22 0.22 0.22 0.20 0.20
0.32 0.33 0.34 0.35 0.36 0.36 0.37 0.37 0.37 0.37 0.36 0.36 0.30 0.26 0.26 0.32 0.32 0.29 0.23 0.19 0.16 0.15 0.21 0.25 0.20 0.17 0.15 0.16 0.15 0.17 0.18 0.17 0.16 0.17 0.14 0.16 0.18 0.18 0.19 0.21 0.18 0.23 0.26 0.17 0.18 0.16 0.16 0.16 0.14 0.14 0.14 0.19 0.19 0.18 0.14 0.16 0.15 0.15 0.16 0.17 0.17 0.19 0.19 0.19 0.16 0.16 0.17 0.16 0.15 0.16 0.16 0.21 0.24 0.24 0.26 0.26 0.26 0.22 0.15 0.13 0.18 0.21 0.22 0.22 0.22 0.21 0.22
0.34 0.36 0.36 0.36 0.35 0.36 0.36 0.36 0.37 0.36 0.36 0.33 0.31 0.28 0.26 0.30 0.32 0.30 0.23 0.20 0.17 0.14 0.24 0.27 0.27 0.22 0.23 0.25 0.20 0.19 0.19 0.17 0.17 0.13 0.14 0.12 0.16 0.21 0.21 0.22 0.23 0.18 0.24 0.18 0.19 0.17 0.16 0.16 0.18 0.17 0.15 0.16 0.18 0.15 0.17 0.15 0.15 0.18 0.18 0.16 0.16 0.18 0.18 0.17 0.18 0.16 0.15 0.16 0.14 0.15 0.18 0.23 0.26 0.27 0.27 0.27 0.21 0.15 0.15 0.20 0.24 0.23 0.21 0.22 0.23 0.23 0.24
0.34 0.35 0.36 0.35 0.35 0.35 0.35 0.35 0.35 0.35 0.33 0.32 0.28 0.23 0.26 0.28 0.31 0.31 0.23 0.18 0.19 0.17 0.22 0.23 0.25 0.21 0.25 0.21 0.18 0.17 0.18 0.19 0.19 0.15 0.14 0.13 0.21 0.23 0.21 0.18 0.24 0.23 0.20 0.21 0.16 0.18 0.15 0.14 0.15 0.17 0.15 0.16 0.16 0.19 0.16 0.16 0.18 0.16 0.16 0.18 0.16 0.16 0.15 0.14 0.15 0.17 0.17 0.17 0.16 0.15 0.14 0.22 0.28 0.26 0.24 0.25 0.19 0.19 0.24 0.24 0.23 0.24 0.24 0.24 0.25 0.26 0.26
0.35 0.36 0.36 0.35 0.34 0.34 0.34 0.33 0.33 0.32 0.31 0.30 0.28 0.24 0.22 0.29 0.30 0.33 0.32 0.23 0.19 0.15 0.18 0.28 0.28 0.24 0.25 0.23 0.24 0.23 0.20 0.17 0.18 0.18 0.20 0.20 0.25 0.22 0.15 0.15 0.18 0.19 0.16 0.17 0.14 0.15 0.16 0.15 0.16 0.16 0.17 0.16 0.17 0.17 0.14 0.15 0.16 0.20 0.19 0.17 0.17 0.20 0.16 0.16 0.17 0.20 0.16 0.16 0.16 0.17 0.22 0.25 0.27 0.24 0.20 0.22 0.24 0.26 0.26 0.24 0.23 0.24 0.25 0.26 0.26 0.26 0.26
0.36 0.35 0.35 0.34 0.33 0.33 0.32 0.32 0.31 0.30 0.31 0.30 0.29 0.26 0.22 0.26 0.29 0.30 0.30 0.27 0.20 0.17 0.22 0.27 0.29 0.26 0.28 0.29 0.29 0.30 0.29 0.28 0.31 0.30 0.24 0.22 0.26 0.22 0.21 0.23 0.21 0.21 0.21 0.22 0.19 0.18 0.19 0.19 0.19 0.16 0.15 0.16 0.18 0.15 0.16 0.13 0.12 0.16 0.20 0.20 0.15 0.21 0.19 0.21 0.18 0.23 0.21 0.19 0.21 0.24 0.25 0.24 0.25 0.24 0.23 0.25 0.27 0.27 0.26 0.25 0.25 0.24 0.25 0.27 0.25 0.25 0.25
0.35 0.34 0.33 0.32 0.31 0.31 0.31 0.31 0.31 0.31 0.31 0.31 0.31 0.27 0.22 0.25 0.27 0.31 0.30 0.22 0.25 0.28 0.30 0.28 0.30 0.30 0.32 0.33 0.35 0.36 0.36 0.38 0.36 0.34 0.32 0.24 0.22 0.24 0.22 0.22 0.22 0.26 0.26 0.25 0.20 0.19 0.19 0.19 0.16 0.18 0.16 0.17 0.15 0.15 0.16 0.16 0.15 0.18 0.17 0.22 0.21 0.25 0.26 0.27 0.24 0.23 0.26 0.25 0.23 0.23 0.23 0.23 0.23 0.24 0.25 0.25 0.25 0.25 0.26 0.25 0.25 0.25 0.26 0.26 0.25 0.25 0.24
0.33 0.33 0.32 0.31 0.30 0.30 0.30 0.30 0.30 0.30 0.31 0.32 0.29 0.26 0.25 0.28 0.28 0.27 0.25 0.23 0.21 0.21 0.26 0.28 0.26 0.20 0.23 0.25 0.31 0.37 0.37 0.35 0.34 0.35 0.36 0.31 0.21 0.21 0.26 0.27 0.28 0.26 0.25 0.25 0.27 0.21 0.20 0.20 0.18 0.19 0.14 0.17 0.18 0.16 0.14 0.15 0.17 0.21 0.20 0.20 0.23 0.26 0.27 0.25 0.22 0.24 0.20 0.17 0.20 0.20 0.22 0.23 0.24 0.23 0.24 0.24 0.25 0.25 0.26 0.25 0.25 0.25 0.25 0.24 0.24 0.24 0.23
0.31 0.31 0.31 0.30 0.30 0.30 0.30 0.30 0.31 0.31 0.32 0.31 0.30 0.31 0.31 0.29 0.31 0.30 0.24 0.21 0.20 0.20 0.17 0.19 0.22 0.26 0.32 0.35 0.36 0.34 0.35 0.36 0.36 0.34 0.34 0.33 0.29 0.23 0.21 0.27 0.30 0.24 0.23 0.25 0.26 0.22 0.21 0.17 0.17 0.16 0.14 0.19 0.20 0.16 0.22 0.19 0.19 0.25 0.20 0.22 0.23 0.22 0.26 0.22 0.22 0.21 0.19 0.19 0.21 0.23 0.25 0.26 0.25 0.25 0.23 0.23 0.24 0.24 0.24 0.25 0.26 0.26 0.25 0.24 0.24 0.24 0.23
0.31 0.31 0.30 0.30 0.30 0.31 0.32 0.32 0.32 0.32 0.31 0.31 0.29 0.26 0.26 0.27 0.32 0.33 0.30 0.26 0.24 0.22 0.17 0.17 0.20 0.31 0.33 0.31 0.27 0.30 0.34 0.34 0.34 0.34 0.33 0.33 0.33 0.32 0.28 0.29 0.26 0.30 0.26 0.24 0.22 0.19 0.18 0.18 0.19 0.19 0.18 0.20 0.26 0.22 0.22 0.24 0.24 0.27 0.24 0.23 0.25 0.24 0.25 0.21 0.23 0.21 0.22 0.24 0.24 0.24 0.25 0.25 0.25 0.24 0.24 0.24 0.23 0.22 0.23 0.24 0.24 0.24 0.23 0.23 0.22 0.22 0.20
0.33 0.33 0.33 0.33 0.33 0.33 0.33 0.32 0.33 0.33 0.33 0.33 0.29 0.29 0.28 0.31 0.34 0.31 0.27 0.25 0.22 0.19 0.19 0.16 0.20 0.25 0.29 0.25 0.29 0.33 0.33 0.33 0.33 0.33 0.32 0.32 0.32 0.32 0.29 0.26 0.23 0.22 0.21 0.21 0.23 0.23 0.23 0.23 0.23 0.21 0.24 0.24 0.28 0.26 0.27 0.26 0.26 0.25 0.24 0.26 0.27 0.24 0.22 0.24 0.24 0.21 0.21 0.20 0.21 0.23 0.19 0.17 0.19 0.21 0.22 0.22 0.23 0.23 0.23 0.23 0.23 0.22 0.21 0.20 0.18 0.18 0.19
0.33 0.33 0.33 0.33 0.32 0.32 0.32 0.32 0.31 0.31 0.32 0.32 0.31 0.30 0.31 0.30 0.32 0.33 0.34 0.30 0.24 0.18 0.18 0.18 0.18 0.22 0.30 0.25 0.30 0.32 0.32 0.32 0.32 0.32 0.31 0.30 0.30 0.28 0.25 0.24 0.23 0.21 0.23 0.24 0.23 0.25 0.25 0.24 0.23 0.28 0.29 0.29 0.27 0.25 0.29 0.29 0.29 0.26 0.26 0.25 0.25 0.23 0.24 0.25 0.22 0.21 0.19 0.21 0.22 0.24 0.23 0.21 0.21 0.21 0.21 0.22 0.23 0.23 0.22 0.21 0.20 0.19 0.19 0.19 0.19 0.17 0.17
0.33 0.33 0.33 0.32 0.32 0.31 0.31 0.30 0.31 0.32 0.32 0.32 0.32 0.30 0.30 0.31 0.32 0.32 0.32 0.32 0.28 0.24 0.23 0.23 0.25 0.22 0.17 0.21 0.31 0.29 0.32 0.31 0.31 0.30 0.28 0.27 0.26 0.25 0.25 0.27 0.27 0.30 0.31 0.30 0.29 0.28 0.27 0.27 0.30 0.28 0.27 0.31 0.28 0.25 0.27 0.24 0.24 0.24 0.26 0.26 0.25 0.26 0.28 0.26 0.25 0.24 0.22 0.23 0.22 0.23 0.22 0.20 0.20 0.21 0.22 0.22 0.23 0.22 0.20 0.18 0.18 0.18 0.19 0.19 0.18 0.17 0.17
0.32 0.32 0.32 0.31 0.31 0.30 0.30 0.30 0.30 0.31 0.32 0.32 0.30 0.26 0.24 0.23 0.32 0.30 0.32 0.31 0.29 0.25 0.20 0.18 0.16 0.18 0.27 0.28 0.24 0.28 0.29 0.31 0.30 0.28 0.25 0.24 0.24 0.26 0.30 0.32 0.33 0.36 0.33 0.30 0.30 0.26 0.29 0.29 0.31 0.32 0.34 0.36 0.29 0.28 0.25 0.26 0.25 0.26 0.28 0.26 0.25 0.26 0.27 0.26 0.26 0.22 0.19 0.22 0.23 0.23 0.23 0.22 0.22 0.22 0.23 0.23 0.22 0.21 0.19 0.18 0.19 0.19 0.18 0.19 0.19 0.18 0.18
0.31 0.31 0.30 0.30 0.29 0.29 0.29 0.29 0.31 0.32 0.33 0.29 0.26 0.20 0.19 0.18 0.23 0.32 0.30 0.32 0.34 0.28 0.22 0.21 0.17 0.22 0.21 0.27 0.27 0.27 0.28 0.28 0.25 0.24 0.24 0.26 0.30 0.34 0.36 0.36 0.36 0.36 0.30 0.31 0.31 0.30 0.32 0.28 0.30 0.31 0.35 0.35 0.32 0.28 0.26 0.25 0.22 0.23 0.24 0.23 0.23 0.24 0.23 0.24 0.24 0.23 0.23 0.22 0.23 0.23 0.24 0.24 0.24 0.23 0.21 0.19 0.19 0.20 0.19 0.19 0.19 0.20 0.20 0.20 0.20 0.20 0.19
0.28 0.28 0.28 0.28 0.28 0.28 0.28 0.28 0.29 0.30 0.29 0.25 0.21 0.20 0.21 0.22 0.25 0.29 0.31 0.31 0.31 0.24 0.20 0.17 0.17 0.18 0.19 0.23 0.26 0.30 0.29 0.26 0.25 0.26 0.28 0.33 0.31 0.35 0.34 0.35 0.33 0.37 0.34 0.32 0.33 0.33 0.31 0.32 0.31 0.31 0.31 0.35 0.32 0.27 0.26 0.23 0.20 0.21 0.22 0.21 0.21 0.22 0.23 0.22 0.22 0.22 0.23 0.24 0.24 0.22 0.20 0.21 0.22 0.20 0.18 0.20 0.20 0.20 0.19 0.19 0.20 0.21 0.21 0.21 0.21 0.21 0.20
0.27 0.27 0.27 0.27 0.27 0.27 0.28 0.28 0.27 0.26 0.24 0.26 0.28 0.29 0.28 0.28 0.29 0.30 0.31 0.30 0.29 0.24 0.24 0.20 0.17 0.19 0.19 0.20 0.24 0.27 0.26 0.24 0.25 0.28 0.27 0.35 0.30 0.33 0.31 0.36 0.36 0.35 0.41 0.35 0.31 0.29 0.33 0.32 0.32 0.29 0.32 0.34 0.29 0.26 0.23 0.21 0.20 0.21 0.21 0.20 0.20 0.20 0.21 0.22 0.22 0.23 0.23 0.25 0.25 0.21 0.19 0.20 0.19 0.20 0.19 0.19 0.19 0.19 0.19 0.20 0.22 0.22 0.22 0.21 0.20 0.20 0.20
0.27 0.26 0.26 0.26 0.26 0.27 0.28 0.28 0.29 0.28 0.31 0.25 0.20 0.21 0.24 0.28 0.29 0.32 0.32 0.27 0.24 0.25 0.25 0.21 0.18 0.17 0.17 0.24 0.17 0.23 0.28 0.24 0.24 0.28 0.25 0.32 0.34 0.33 0.32 0.33 0.35 0.31 0.36 0.32 0.33 0.32 0.32 0.31 0.28 0.28 0.30 0.29 0.29 0.24 0.20 0.20 0.21 0.20 0.20 0.19 0.19 0.19 0.20 0.21 0.22 0.22 0.23 0.24 0.25 0.25 0.24 0.23 0.22 0.21 0.19 0.18 0.17 0.18 0.19 0.20 0.22 0.22 0.21 0.21 0.21 0.21 0.21
0.25 0.25 0.25 0.25 0.25 0.26 0.28 0.28 0.27 0.24 0.22 0.22 0.22 0.24 0.27 0.28 0.29 0.32 0.32 0.26 0.21 0.20 0.21 0.23 0.22 0.17 0.15 0.16 0.16 0.22 0.30 0.26 0.23 0.28 0.28 0.32 0.37 0.32 0.34 0.30 0.32 0.29 0.31 0.38 0.32 0.29 0.27 0.27 0.30 0.25 0.23 0.27 0.23 0.19 0.19 0.19 0.20 0.19 0.19 0.19 0.19 0.20 0.19 0.18 0.19 0.21 0.23 0.24 0.24 0.23 0.23 0.21 0.19 0.17 0.16 0.17 0.17 0.18 0.18 0.19 0.21 0.23 0.22 0.21 0.21 0.20 0.19
0.22 0.22 0.23 0.24 0.24 0.24 0.23 0.29 0.22 0.22 0.19 0.19 0.20 0.26 0.27 0.30 0.29 0.31 0.32 0.31 0.26 0.21 0.20 0.20 0.20 0.17 0.17 0.15 0.16 0.21 0.30 0.26 0.31 0.33 0.34 0.34 0.33 0.36 0.34 0.31 0.26 0.31 0.33 0.30 0.25 0.27 0.25 0.29 0.26 0.20 0.24 0.21 0.19 0.20 0.20 0.20 0.19 0.19 0.19 0.19 0.20 0.21 0.21 0.21 0.21 0.22 0.22 0.22 0.22 0.22 0.20 0.18 0.17 0.16 0.16 0.16 0.17 0.18 0.19 0.19 0.20 0.23 0.23 0.22 0.20 0.19 0.19
0.21 0.22 0.23 0.23 0.21 0.20 0.17 0.16 0.21 0.21 0.19 0.21 0.24 0.27 0.29 0.29 0.30 0.30 0.28 0.28 0.31 0.30 0.22 0.20 0.18 0.18 0.19 0.18 0.21 0.25 0.31 0.26 0.33 0.32 0.33 0.31 0.29 0.33 0.31 0.28 0.24 0.29 0.28 0.26 0.25 0.22 0.24 0.29 0.23 0.20 0.20 0.18 0.19 0.22 0.21 0.21 0.20 0.19 0.19 0.21 0.22 0.23 0.23 0.23 0.23 0.22 0.19 0.19 0.19 0.18 0.17 0.16 0.16 0.16 0.16 0.16 0.17 0.19 0.20 0.20 0.21 0.23 0.22 0.21 0.21 0.19 0.18
0.22 0.22 0.20 0.17 0.15 0.12 0.13 0.16 0.18 0.22 0.25 0.24 0.26 0.23 0.24 0.25 0.21 0.22 0.24 0.24 0.26 0.26 0.23 0.22 0.18 0.20 0.24 0.23 0.22 0.32 0.33 0.30 0.34 0.29 0.30 0.32 0.28 0.27 0.28 0.25 0.25 0.25 0.19 0.20 0.21 0.26 0.24 0.22 0.20 0.19 0.19 0.22 0.23 0.22 0.22 0.22 0.22 0.23 0.23 0.23 0.24 0.24 0.23 0.22 0.22 0.20 0.18 0.16 0.15 0.15 0.14 0.14 0.13 0.14 0.15 0.15 0.16 0.17 0.19 0.21 0.23 0.25 0.23 0.21 0.19 0.18 0.17
0.20 0.18 0.17 0.15 0.13 0.12 0.12 0.15 0.25 0.26 0.24 0.25 0.25 0.19 0.19 0.23 0.20 0.18 0.20 0.21 0.21 0.19 0.22 0.20 0.19 0.24 0.25 0.27 0.30 0.38 0.34 0.31 0.29 0.28 0.24 0.29 0.25 0.21 0.25 0.20 0.23 0.22 0.18 0.17 0.19 0.23 0.17 0.18 0.19 0.18 0.17 0.20 0.20 0.21 0.23 0.23 0.24 0.24 0.24 0.25 0.26 0.24 0.22 0.20 0.20 0.18 0.17 0.17 0.17 0.18 0.18 0.17 0.17 0.16 0.17 0.17 0.18 0.19 0.20 0.22 0.24 0.22 0.20 0.18 0.17 0.16 0.15
0.16 0.13 0.12 0.13 0.12 0.14 0.20 0.25 0.27 0.24 0.22 0.18 0.22 0.20 0.16 0.20 0.18 0.16 0.21 0.18 0.18 0.22 0.24 0.21 0.27 0.29 0.32 0.30 0.30 0.30 0.38 0.30 0.24 0.23 0.23 0.24 0.31 0.21 0.22 0.22 0.22 0.19 0.14 0.15 0.17 0.21 0.16 0.14 0.17 0.16 0.16 0.19 0.19 0.21 0.23 0.24 0.24 0.24 0.25 0.25 0.25 0.22 0.20 0.19 0.19 0.20 0.19 0.19 0.19 0.18 0.19 0.20 0.21 0.20 0.19 0.19 0.20 0.20 0.21 0.22 0.20 0.18 0.17 0.15 0.15 0.15 0.15
0.15 0.14 0.13 0.12 0.15 0.18 0.20 0.24 0.26 0.21 0.20 0.18 0.17 0.19 0.17 0.16 0.19 0.21 0.21 0.19 0.20 0.22 0.28 0.28 0.32 0.32 0.34 0.33 0.31 0.26 0.31 0.32 0.29 0.29 0.26 0.21 0.27 0.25 0.19 0.17 0.21 0.16 0.14 0.14 0.18 0.18 0.16 0.15 0.15 0.15 0.16 0.19 0.20 0.21 0.23 0.23 0.24 0.25 0.25 0.24 0.23 0.20 0.17 0.17 0.19 0.19 0.18 0.16 0.16 0.17 0.19 0.21 0.21 0.20 0.20 0.21 0.22 0.23 0.21 0.19 0.17 0.16 0.15 0.15 0.15 0.15 0.16
0.16 0.15 0.16 0.21 0.21 0.22 0.22 0.21 0.20 0.18 0.20 0.20 0.16 0.15 0.18 0.20 0.23 0.23 0.24 0.20 0.21 0.27 0.30 0.32 0.29 0.30 0.29 0.30 0.28 0.28 0.27 0.32 0.29 0.26 0.23 0.19 0.24 0.19 0.17 0.18 0.18 0.14 0.13 0.16 0.18 0.16 0.15 0.12 0.13 0.15 0.18 0.20 0.21 0.23 0.23 0.23 0.22 0.22 0.22 0.23 0.20 0.17 0.15 0.16 0.17 0.17 0.17 0.17 0.17 0.19 0.20 0.20 0.19 0.20 0.21 0.22 0.21 0.19 0.17 0.16 0.15 0.15 0.15 0.15 0.16 0.16 0.16
0.23 0.20 0.19 0.16 0.18 0.17 0.18 0.15 0.18 0.19 0.15 0.15 0.16 0.16 0.20 0.19 0.22 0.22 0.23 0.29 0.34 0.32 0.32 0.36 0.33 0.33 0.32 0.32 0.26 0.28 0.25 0.30 0.25 0.23 0.21 0.18 0.22 0.20 0.16 0.15 0.15 0.12 0.14 0.18 0.16 0.14 0.12 0.13 0.13 0.16 0.19 0.20 0.21 0.22 0.23 0.22 0.21 0.21 0.21 0.22 0.19 0.17 0.16 0.17 0.17 0.16 0.17 0.18 0.19 0.20 0.19 0.18 0.19 0.21 0.23 0.21 0.18 0.16 0.15 0.15 0.15 0.15 0.15 0.16 0.16 0.16 0.16
0.20 0.19 0.16 0.16 0.15 0.15 0.17 0.11 0.19 0.18 0.17 0.19 0.18 0.17 0.20 0.20 0.23 0.27 0.26 0.29 0.32 0.30 0.31 0.27 0.25 0.24 0.21 0.27 0.23 0.23 0.24 0.25 0.27 0.23 0.20 0.21 0.18 0.15 0.15 0.13 0.13 0.16 0.18 0.14 0.14 0.12 0.13 0.15 0.17 0.17 0.19 0.20 0.22 0.21 0.21 0.20 0.20 0.20 0.20 0.20 0.18 0.16 0.16 0.17 0.16 0.16 0.17 0.19 0.20 0.19 0.18 0.18 0.19 0.21 0.19 0.17 0.16 0.15 0.14 0.14 0.14 0.14 0.15 0.16 0.16 0.14 0.15
0.16 0.14 0.14 0.14 0.13 0.17 0.16 0.13 0.21 0.18 0.16 0.19 0.24 0.23 0.23 0.22 0.25 0.28 0.28 0.33 0.31 0.26 0.28 0.27 0.25 0.23 0.21 0.24 0.24 0.24 0.23 0.19 0.25 0.19 0.16 0.17 0.15 0.15 0.13 0.12 0.15 0.15 0.13 0.11 0.13 0.15 0.15 0.14 0.17 0.17 0.18 0.19 0.20 0.21 0.21 0.20 0.20 0.20 0.20 0.17 0.15 0.15 0.16 0.16 0.16 0.17 0.18 0.18 0.18 0.17 0.17 0.18 0.18 0.16 0.16 0.15 0.15 0.15 0.15 0.14 0.14 0.14 0.15 0.14 0.13 0.12 0.12
0.15 0.14 0.14 0.12 0.12 0.17 0.17 0.16 0.19 0.18 0.24 0.26 0.25 0.27 0.28 0.29 0.30 0.30 0.32 0.32 0.27 0.25 0.23 0.23 0.22 0.22 0.20 0.22 0.19 0.18 0.21 0.21 0.18 0.17 0.17 0.16 0.13 0.12 0.15 0.17 0.16 0.12 0.12 0.13 0.12 0.11 0.12 0.14 0.16 0.17 0.20 0.20 0.20 0.20 0.20 0.19 0.19 0.21 0.18 0.15 0.15 0.16 0.16 0.16 0.17 0.18 0.18 0.17 0.17 0.17 0.17 0.17 0.15 0.15 0.14 0.14 0.14 0.14 0.15 0.14 0.14 0.15 0.14 0.12 0.11 0.11 0.11
0.17 0.19 0.18 0.17 0.15 0.19 0.23 0.19 0.21 0.24 0.27 0.29 0.31 0.32 0.32 0.32 0.32 0.30 0.29 0.27 0.24 0.23 0.23 0.23 0.22 0.21 0.19 0.19 0.19 0.20 0.20 0.20 0.16 0.17 0.17 0.13 0.12 0.14 0.17 0.13 0.11 0.12 0.10 0.10 0.11 0.11 0.13 0.15 0.18 0.20 0.21 0.20 0.19 0.19 0.18 0.17 0.19 0.18 0.16 0.16 0.16 0.16 0.17 0.17 0.17 0.17 0.17 0.18 0.17 0.17 0.16 0.15 0.14 0.14 0.14 0.13 0.13 0.14 0.13 0.12 0.13 0.13 0.11 0.10 0.11 0.10 0.10
0.16 0.20 0.19 0.15 0.16 0.21 0.21 0.24 0.30 0.31 0.33 0.33 0.34 0.34 0.33 0.32 0.27 0.24 0.24 0.24 0.23 0.23 0.21 0.21 0.19 0.20 0.19 0.22 0.22 0.18 0.18 0.18 0.15 0.15 0.16 0.14 0.15 0.13 0.13 0.12 0.12 0.14 0.14 0.12 0.11 0.14 0.16 0.18 0.20 0.20 0.20 0.20 0.19 0.17 0.16 0.16 0.17 0.16 0.16 0.16 0.16 0.16 0.16 0.17 0.17 0.17 0.18 0.17 0.16 0.15 0.15 0.14 0.13 0.13 0.13 0.12 0.11 0.11 0.11 0.12 0.12 0.11 0.10 0.10 0.09 0.09 0.09
0.23 0.22 0.19 0.20 0.24 0.26 0.27 0.30 0.31 0.29 0.32 0.34 0.33 0.31 0.27 0.23 0.20 0.21 0.22 0.23 0.22 0.21 0.22 0.21 0.19 0.19 0.16 0.19 0.17 0.16 0.15 0.17 0.12 0.12 0.16 0.15 0.12 0.10 0.10 0.09 0.10 0.09 0.13 0.14 0.15 0.17 0.18 0.20 0.21 0.20 0.19 0.17 0.16 0.16 0.16 0.18 0.17 0.16 0.16 0.16 0.16 0.17 0.17 0.17 0.17 0.18 0.17 0.16 0.16 0.15 0.13 0.13 0.13 0.12 0.10 0.09 0.09 0.09 0.10 0.10 0.10 0.09 0.09 0.09 0.09 0.09 0.09
0.23 0.24 0.28 0.26 0.27 0.29 0.32 0.32 0.31 0.29 0.31 0.30 0.27 0.23 0.22 0.20 0.19 0.20 0.23 0.21 0.23 0.22 0.23 0.22 0.23 0.19 0.17 0.17 0.14 0.15 0.14 0.16 0.14 0.15 0.13 0.11 0.12 0.12 0.11 0.08 0.10 0.11 0.12 0.16 0.18 0.19 0.21 0.21 0.20 0.17 0.15 0.14 0.15 0.16 0.17 0.17 0.17 0.16 0.17 0.17 0.18 0.18 0.18 0.18 0.17 0.17 0.16 0.15 0.15 0.14 0.13 0.13 0.11 0.09 0.09 0.09 0.08 0.09 0.09 0.09 0.09 0.09 0.09 0.09 0.09 0.09 0.10
0.31 0.29 0.30 0.34 0.29 0.29 0.31 0.27 0.27 0.26 0.24 0.22 0.21 0.20 0.20 0.19 0.19 0.19 0.23 0.22 0.22 0.20 0.19 0.17 0.17 0.17 0.15 0.15 0.13 0.11 0.12 0.16 0.15 0.13 0.12 0.12 0.13 0.12 0.10 0.10 0.12 0.15 0.17 0.20 0.21 0.21 0.20 0.19 0.16 0.14 0.14 0.13 0.14 0.16 0.17 0.17 0.17 0.17 0.17 0.18 0.18 0.18 0.18 0.17 0.17 0.16 0.15 0.14 0.14 0.13 0.12 0.10 0.10 0.09 0.09 0.09 0.08 0.08 0.08 0.08 0.09 0.09 0.09 0.09 0.10 0.10 0.10
0.29 0.28 0.29 0.33 0.35 0.34 0.33 0.31 0.30 0.26 0.24 0.23 0.21 0.21 0.21 0.19 0.20 0.22 0.24 0.23 0.20 0.17 0.16 0.18 0.17 0.15 0.14 0.11 0.13 0.15 0.17 0.15 0.13 0.13 0.12 0.13 0.15 0.12 0.12 0.14 0.15 0.18 0.19 0.19 0.18 0.18 0.17 0.16 0.15 0.14 0.14 0.14 0.16 0.17 0.17 0.17 0.17 0.17 0.17 0.17 0.18 0.18 0.17 0.16 0.15 0.14 0.13 0.13 0.13 0.12 0.10 0.10 0.09 0.09 0.09 0.08 0.08 0.07 0.07 0.07 0.08 0.08 0.09 0.09 0.09 0.09 0.09
Wind_Speed
6 6 5 4 4 4 3 3 2 2 2 3 3 3 3 3 4 4 4 4 4 3 4 5 5 5 6 6 7 7 7 7 8 8 9 9 9 10 10 11 11 12 12 12 12 13 14 14 14 15 16 16 17 17 17 17 18 18 19 20 20 20 20 22 24 24 23 23 23 22 21 21 21 23 23 22 22 22 22 24 25 25 24 24 23 26 31
6 5 4 4 4 3 3 2 2 2 2 2 3 3 3 3 4 4 4 4 4 4 5 5 6 6 6 6 7 7 8 8 8 9 9 10 10 10 11 11 12 12 12 12 13 14 14 15 15 15 16 17 17 17 18 18 18 19 20 20 20 21 21 21 23 25 24 23 22 22 23 22 23 25 24 23 23 22 24 25 25 26 26 24 22 27 32
5 5 4 4 3 3 3 2 2 2 2 2 2 3 3 3 4 4 4 4 4 5 5 5 5 6 6 7 8 8 8 8 9 9 10 10 10 11 12 12 12 13 13 13 14 15 15 16 16 16 17 18 18 18 19 19 19 20 21 20 21 22 21 21 22 22 23 23 24 24 25 25 25 26 25 25 24 22 24 25 24 26 27 24 23 30 36
5 5 4 4 3 3 3 2 2 2 2 2 2 2 3 3 4 4 5 5 4 5 5 5 5 6 7 7 8 8 8 9 10 10 10 10 11 11 12 12 12 13 13 14 16 16 16 17 17 18 18 19 19 18 19 19 20 20 21 21 21 22 23 23 22 23 24 26 26 25 26 27 28 27 26 26 26 25 24 24 25 27 27 28 29 33 38
5 5 4 4 4 3 3 3 2 2 2 3 2 3 3 3 4 4 4 5 4 4 5 5 5 6 7 7 8 8 9 10 10 10 11 11 11 12 12 12 13 13 14 15 16 17 17 17 18 18 19 19 20 19 19 20 21 21 21 21 21 22 25 24 24 26 27 28 28 27 27 28 30 30 28 26 26 26 25 27 29 27 26 31 33 31 33
5 5 4 4 4 4 3 3 3 2 3 3 3 3 3 3 4 4 4 5 5 5 6 6 5 6 7 7 8 8 9 10 10 10 11 11 12 12 13 14 14 14 14 15 16 17 17 18 19 19 19 20 20 20 20 20 21 21 21 22 22 22 26 25 25 27 29 29 29 28 28 29 29 29 28 27 26 26 27 30 30 27 28 33 34 32 33
5 4 4 4 4 4 4 3 3 3 3 4 3 3 4 4 4 4 5 5 5 6 7 6 5 6 7 8 8 8 9 10 11 11 11 12 13 13 14 16 16 15 15 15 16 17 18 19 20 19 19 20 20 21 21 21 22 22 22 23 23 23 26 26 26 28 29 28 28 28 27 28 28 29 29 27 26 26 27 29 29 27 31 34 35 36 36
4 4 4 4 4 4 4 4 4 4 4 4 3 4 4 4 4 5 5 5 5 6 7 6 6 7 8 9 9 9 9 11 12 11 11 13 13 13 14 16 16 15 15 16 17 18 17 19 20 19 19 21 21 21 22 21 22 23 23 24 24 24 26 26 26 29 29 27 26 26 25 26 29 30 28 24 24 25 26 28 27 27 30 33 34 36 35
4 4 4 4 4 4 4 4 4 4 4 4 4 4 5 5 5 5 5 6 6 7 7 7 7 8 9 9 10 10 10 11 12 12 12 13 13 13 14 15 15 16 16 17 19 20 18 19 21 20 20 22 22 22 22 21 21 23 23 24 24 24 26 26 26 28 28 26 26 26 27 28 29 28 26 23 23 25 25 24 24 25 29 32 32 32 33
4 4 4 4 4 4 4 5 5 5 4 4 4 5 5 5 6 6 6 7 8 7 8 8 8 9 10 10 10 11 12 12 12 13 14 13 14 15 15 15 15 16 17 19 20 21 20 21 22 21 21 22 22 23 23 21 21 22 23 24 24 23 25 26 26 27 28 26 26 28 28 27 24 23 24 23 23 23 23 24 24 25 27 29 30 31 32
4 4 4 4 5 5 5 5 5 5 5 5 5 6 7 6 7 7 7 8 9 8 8 9 9 10 10 10 11 11 12 12 12 13 15 15 15 16 16 15 17 18 19 20 21 21 21 21 21 21 21 22 22 22 21 21 21 22 21 22 24 23 23 25 25 25 27 28 28 27 24 21 21 23 23 22 22 23 24 26 27 26 26 28 29 31 34
3 4 4 4 5 5 6 6 7 7 7 7 7 8 8 7 8 8 7 8 9 9 9 10 10 10 11 11 11 12 13 13 14 15 16 16 17 17 17 16 18 19 20 21 21 21 21 22 21 21 21 21 20 20 20 20 21 21 20 21 22 22 22 24 23 24 26 27 26 23 20 20 23 24 22 21 23 24 25 28 29 27 26 28 31 33 36
3 3 4 5 5 6 7 7 8 8 9 9 8 8 9 8 8 8 7 8 9 9 9 10 11 11 11 12 12 13 14 15 15 16 16 17 17 18 18 18 18 19 20 20 20 20 21 21 21 20 21 20 19 19 19 20 20 21 21 20 20 20 20 22 22 22 23 23 21 20 22 25 25 21 20 23 25 26 28 30 29 27 27 28 31 34 37
3 4 5 6 6 7 7 8 8 8 8 8 8 8 8 8 8 8 8 8 10 10 9 11 12 12 13 13 13 14 15 16 17 17 17 17 18 18 19 18 19 19 19 19 19 19 19 20 20 20 20 19 19 19 19 19 19 19 20 20 19 18 19 20 21 21 21 21 21 23 25 26 22 19 21 25 27 29 30 31 31 29 27 29 33 38 41
4 5 5 6 6 7 7 7 7 7 7 7 7 7 8 8 8 9 9 9 10 11 11 12 13 13 13 14 14 15 16 17 17 17 17 17 17 18 18 18 18 18 17 17 18 17 18 18 18 19 19 17 18 18 18 18 18 18 18 19 18 18 19 19 19 20 20 21 23 23 23 21 20 22 25 27 28 29 29 31 32 29 28 33 38 41 43
4 5 5 6 6 6 6 6 6 6 6 6 7 7 8 9 9 9 10 10 10 12 13 13 14 14 14 15 15 15 16 16 16 17 18 17 17 17 17 16 16 16 15 16 16 16 16 17 16 17 17 17 17 18 18 18 18 18 19 18 18 19 20 18 19 21 20 20 21 21 20 21 22 25 28 29 29 30 30 31 31 29 33 40 42 42 44
4 5 5 5 5 4 5 5 5 6 6 7 8 8 9 10 10 10 11 11 12 13 14 15 15 14 14 15 15 16 15 15 15 16 16 16 16 15 15 14 14 14 14 15 16 16 16 16 16 17 18 17 16 18 18 17 18 19 19 19 19 19 20 19 19 20 20 20 21 21 22 24 25 27 30 31 31 30 31 31 31 35 40 43 43 44 46
4 4 4 4 4 4 5 5 6 6 7 8 8 9 10 11 11 11 11 12 12 14 14 15 15 15 14 15 15 15 14 14 14 14 14 14 14 13 13 13 13 14 14 15 15 15 16 16 16 16 17 17 16 17 17 17 18 19 18 18 19 19 19 19 19 20 21 21 22 24 25 25 26 28 31 32 32 31 31 32 36 42 45 44 44 46 47
3 3 4 4 5 5 5 6 6 6 7 8 8 9 10 11 11 11 11 12 13 13 14 14 14 14 14 14 14 13 13 13 12 12 12 12 12 11 12 12 13 14 14 14 14 15 15 16 15 14 15 17 16 15 16 17 18 18 18 18 19 19 19 20 20 21 21 21 22 25 26 24 26 30 32 32 33 33 34 37 41 44 45 46 47 48 49
4 4 4 5 5 5 5 5 6 6 7 7 8 9 10 11 11 11 11 12 12 13 14 14 14 13 13 13 12 12 11 11 10 9 10 11 11 10 12 13 13 13 14 14 14 14 14 15 15 14 14 16 16 16 17 18 18 18 18 19 19 19 20 21 21 21 22 22 23 24 25 26 29 33 33 33 34 35 38 41 43 44 45 47 48 49 50
4 4 5 5 5 5 5 5 5 6 6 7 8 9 10 11 11 11 12 12 12 13 13 13 12 12 12 11 10 10 9 9 10 10 10 10 10 10 11 13 12 12 13 13 13 14 14 14 15 15 15 16 17 17 18 19 20 20 18 19 20 20 20 22 23 22 22 23 23 24 27 30 32 33 34 35 36 38 40 43 44 45 46 48 49 51 53
4 4 4 4 4 4 5 5 5 6 7 8 9 10 10 11 11 11 12 12 11 11 10 10 10 9 9 8 8 8 9 9 10 10 10 10 10 10 11 12 12 12 13 13 14 15 15 15 16 16 17 17 18 18 18 19 20 21 20 20 21 21 21 22 23 23 24 25 26 28 31 34 34 34 37 38 38 39 41 43 45 47 48 49 51 53 55
4 4 4 4 5 5 5 5 6 7 8 9 10 10 10 11 11 11 10 9 9 8 8 8 7 7 7 7 8 8 9 9 9 9 9 10 10 11 11 12 13 13 14 14 15 15 15 15 16 17 18 18 18 19 20 20 20 20 20 21 21 22 22 23 24 26 27 27 28 31 34 36 37 37 38 39 40 42 44 45 47 48 50 51 53 55 56
4 4 4 5 5 5 6 6 7 8 9 10 10 11 10 10 9 9 9 8 7 7 7 7 7 7 7 7 8 8 9 9 9 9 10 10 11 12 13 13 14 14 15 15 16 16 16 17 17 17 18 19 18 19 20 21 21 21 21 22 23 23 24 25 26 27 29 29 31 33 36 38 40 40 40 41 43 45 46 47 49 50 52 54 55 56 58
5 5 5 5 6 6 6 7 8 9 10 10 10 10 9 9 8 8 8 7 6 6 6 7 7 7 7 8 8 9 9 9 9 10 11 11 12 13 14 15 15 16 16 17 17 17 17 17 18 18 19 19 19 20 20 21 21 21 22 23 24 25 26 27 28 29 30 32 34 37 39 39 38 40 42 45 47 49 49 50 51 52 54 56 57 58 59
5 5 6 6 6 7 7 8 9 9 10 10 9 9 8 8 7 7 7 7 6 6 6 7 7 7 7 8 9 9 10 10 10 11 12 13 14 15 16 16 17 17 17 18 18 17 17 18 18 18 19 20 20 20 20 21 21 21 21 23 25 27 28 29 30 31 32 33 36 40 41 39 38 41 45 48 50 52 53 53 54 55 57 58 59 60 60
6 6 6 7 7 7 8 8 9 10 10 9 9 8 7 7 7 7 8 7 7 7 7 7 8 8 8 9 9 10 11 11 12 13 13 14 15 16 17 17 18 18 18 18 18 18 18 18 19 19 19 20 20 20 20 21 20 20 22 24 26 28 29 30 32 33 34 35 38 41 42 41 43 46 49 51 52 54 55 55 57 58 59 60 61 62 63
7 7 7 7 8 8 8 9 10 10 9 8 7 7 7 7 7 8 8 8 7 7 7 7 7 8 9 9 10 11 12 12 13 14 15 16 16 17 17 17 17 17 17 18 18 18 18 19 19 19 20 20 20 21 21 20 20 20 23 26 28 30 31 32 33 34 36 39 41 42 42 44 47 51 52 53 54 55 56 57 59 60 60 61 62 63 63
7 8 8 8 8 9 9 10 10 10 9 8 7 7 7 7 8 8 8 8 8 8 7 7 8 10 10 10 11 11 12 13 14 15 16 16 17 17 17 17 17 17 18 18 18 18 19 19 20 20 20 20 21 21 20 20 20 21 23 27 30 31 32 33 34 36 38 41 43 44 45 47 50 53 53 54 54 55 58 60 60 61 61 61 60 59 59
8 9 9 9 9 9 10 10 10 10 9 8 8 7 8 8 9 9 9 9 8 8 8 8 9 10 10 10 11 12 13 14 15 16 16 17 17 17 17 17 18 18 19 19 19 20 20 20 20 21 21 21 20 19 19 19 21 23 26 30 33 33 33 34 36 38 41 43 44 46 47 49 51 53 54 55 56 57 59 60 60 60 59 58 57 56 57
9 9 9 9 10 10 10 10 9 9 9 8 8 8 8 8 9 10 9 9 9 9 9 9 9 10 10 11 12 13 14 15 16 17 17 17 17 18 18 18 19 20 20 20 20 20 20 21 20 20 21 20 19 18 18 20 22 25 29 32 34 35 35 36 38 40 42 45 47 48 48 50 51 53 55 57 58 59 59 58 58 57 56 56 56 56 56
10 10 10 10 10 10 9 9 9 9 9 8 8 8 8 8 10 10 10 9 10 9 9 9 10 11 12 12 13 14 15 16 17 17 17 17 18 18 19 20 20 20 19 20 20 20 20 20 20 20 20 20 19 18 18 21 24 28 32 35 36 36 37 39 41 43 44 46 49 50 52 53 54 55 57 59 59 58 57 56 56 56 56 56 56 56 57
10 10 10 10 10 10 10 9 9 9 9 8 8 8 9 9 10 10 10 9 9 10 10 10 11 12 12 13 14 15 16 17 17 18 18 19 19 20 21 21 20 20 20 20 20 20 20 20 20 20 20 19 18 18 20 23 27 30 34 36 37 38 40 42 43 45 47 48 50 51 53 56 57 58 59 58 56 55 55 55 55 55 55 55 56 56 58
11 10 10 10 10 10 10 9 9 9 9 9 9 9 9 10 10 10 10 10 10 10 10 11 11 13 13 14 14 15 16 18 18 19 20 20 20 21 21 20 20 20 20 20 20 20 20 20 20 20 20 20 20 20 22 26 30 33 36 37 39 41 43 44 45 47 49 51 52 52 54 56 57 57 56 54 54 54 54 54 54 54 55 55 55 56 58
11 11 11 11 10 10 10 9 9 9 9 9 9 10 10 10 10 10 10 10 10 11 11 12 12 12 14 15 16 16 18 19 20 20 21 21 21 21 20 20 20 19 19 20 20 20 20 20 20 19 20 21 21 22 25 29 34 36 38 40 43 44 46 47 49 51 52 53 54 54 55 55 54 54 53 53 53 54 54 54 54 54 54 54 55 57 58
11 11 11 11 10 10 10 9 9 10 10 10 10 11 11 10 10 10 10 11 11 11 11 12 13 13 14 16 17 18 20 21 21 22 21 21 21 21 19 19 19 19 19 20 20 20 20 20 20 20 21 22 22 25 28 32 36 39 41 43 45 46 48 51 53 54 56 56 55 54 53 52 52 52 52 52 52 53 53 54 54 53 53 54 56 58 60
12 11 11 11 10 10 9 9 9 10 11 10 10 10 10 10 9 10 10 11 12 12 12 12 13 14 15 16 18 20 22 22 22 22 21 20 20 20 19 18 19 19 20 20 20 20 21 21 21 21 22 22 24 27 31 34 37 40 43 44 46 48 50 52 54 57 59 58 55 52 52 52 52 52 52 53 53 53 54 54 53 52 53 55 57 59 61
12 12 11 11 10 10 10 10 11 11 11 10 10 9 10 10 10 10 11 12 12 13 14 14 14 16 17 18 20 22 22 22 22 21 20 20 20 19 19 19 19 19 20 21 21 21 22 23 23 22 23 24 26 30 33 36 39 41 43 45 47 49 51 54 56 58 57 55 53 52 53 54 54 54 53 54 54 54 54 54 53 52 53 55 58 60 62
12 12 11 11 10 10 10 10 11 11 10 10 9 9 10 11 10 11 12 13 13 15 15 15 16 17 19 20 21 22 22 21 21 20 20 20 19 19 20 20 20 20 21 21 21 22 23 24 25 25 25 27 30 33 36 39 41 42 44 46 48 51 54 56 56 55 52 50 50 52 52 53 53 53 53 53 54 54 54 53 53 54 56 58 60 61 61
12 12 11 11 10 10 10 11 11 10 10 10 10 10 11 11 11 12 13 14 15 15 16 17 18 19 20 20 21 21 21 20 20 19 19 19 19 20 20 20 21 21 21 21 22 23 24 25 26 26 27 30 33 36 39 41 43 44 46 48 50 53 56 56 53 51 50 50 51 52 52 51 51 51 51 52 52 52 52 53 54 57 58 59 60 60 60
13 12 11 11 10 10 10 11 11 10 10 10 11 11 12 12 13 14 14 15 16 17 18 19 19 20 21 21 20 20 20 20 19 19 19 20 20 20 21 21 22 22 22 23 25 25 25 26 26 26 28 32 36 39 42 44 45 46 48 50 53 55 56 54 51 50 51 52 53 53 51 50 50 51 51 50 50 50 51 54 56 58 58 58 58 59 59
13 12 11 11 10 11 11 11 12 12 11 11 12 13 13 14 15 15 16 16 16 18 19 19 20 21 21 21 20 20 20 20 20 19 19 20 21 21 21 22 23 22 23 25 26 26 26 26 27 28 31 35 39 42 44 46 47 49 51 53 55 56 55 53 52 52 53 54 54 52 51 51 51 50 50 49 50 52 53 55 56 56 56 57 58 58 58
13 12 11 11 11 11 11 12 13 13 12 13 14 15 15 16 16 16 17 17 17 18 19 20 20 21 21 20 20 20 20 20 20 20 20 21 22 22 22 23 23 24 25 26 26 26 27 27 28 31 35 39 41 44 47 49 50 51 52 53 54 55 54 53 54 55 55 54 52 51 51 51 50 49 48 50 52 54 54 54 55 56 56 57 56 56 57
13 13 12 11 12 13 13 13 14 14 14 15 15 15 16 17 17 16 17 18 18 19 19 20 20 20 20 20 20 20 20 20 20 20 21 22 23 23 23 24 25 26 27 27 27 27 28 28 30 34 39 42 44 47 49 51 52 53 53 54 54 54 54 55 56 56 55 53 51 51 51 50 49 48 49 50 52 53 53 55 56 56 55 55 55 56 58
13 13 13 12 13 14 14 14 15 16 15 16 16 15 15 16 17 17 17 18 18 19 20 20 20 20 20 20 20 20 20 21 21 21 22 23 24 24 24 25 26 26 27 27 28 29 30 32 35 39 43 46 48 50 51 53 54 54 54 54 55 55 56 57 56 55 53 52 52 52 51 50 49 49 49 50 51 52 52 54 56 55 55 55 57 59 60
13 13 13 13 14 15 15 15 16 17 16 16 16 16 16 17 18 17 18 18 19 20 21 21 20 20 20 21 20 20 21 22 22 22 23 24 24 25 26 26 26 27 27 28 30 31 33 36 39 43 46 48 50 52 53 54 54 53 53 55 56 57 58 57 56 54 53 53 52 52 51 50 49 49 50 50 51 51 52 54 54 55 56 57 58 60 61
14 14 14 14 15 16 17 16 17 17 17 17 17 17 17 18 18 18 18 18 19 20 21 20 20 20 20 21 21 21 22 22 23 24 25 25 25 26 26 26 27 28 29 30 32 34 36 39 43 45 48 51 52 54 55 54 54 53 55 56 58 58 58 57 55 54 53 53 53 52 51 50 50 50 50 50 51 52 53 54 55 56 57 58 59 59 60
15 15 16 16 16 17 18 17 17 17 17 17 18 18 18 18 18 18 18 19 19 20 20 20 20 20 21 21 21 22 23 23 24 24 25 25 26 27 27 28 28 29 30 31 34 37 39 43 46 48 50 52 53 54 54 54 54 55 57 58 58 58 58 57 55 54 53 53 53 52 51 51 50 49 50 51 52 53 54 54 55 56 58 58 59 60 61
16 17 17 17 17 18 18 17 17 17 18 18 17 18 18 18 18 19 19 19 19 20 20 20 20 20 21 22 22 22 23 24 24 25 26 27 27 27 28 29 30 31 32 34 37 40 42 45 48 51 52 53 54 54 54 54 56 58 59 59 58 58 57 56 55 54 53 53 53 52 51 50 50 50 51 53 53 53 54 54 56 57 58 59 60 62 62
18 18 19 19 19 19 18 17 17 18 18 18 18 18 19 19 19 19 19 20 20 20 20 20 21 22 22 23 23 23 24 25 25 26 27 27 27 28 29 30 32 34 36 38 40 43 45 48 50 52 53 53 54 53 54 55 58 59 59 59 58 57 56 55 54 54 53 53 52 51 51 50 50 51 53 53 53 54 54 55 56 57 59 60 61 61 61
19 20 20 20 19 19 18 17 17 17 18 18 18 19 19 19 19 20 20 20 21 21 21 22 22 23 23 23 23 24 25 26 26 26 27 28 29 29 31 33 34 37 39 41 43 45 47 49 50 52 53 54 54 54 55 57 59 59 59 58 57 56 55 54 54 53 53 53 51 50 50 51 51 52 52 53 54 54 54 55 56 58 59 60 60 60 60
20 20 20 20 20 19 18 17 17 17 17 17 18 19 19 19 20 20 21 21 21 21 22 23 23 23 23 24 24 25 26 26 27 27 28 29 30 31 33 35 37 40 42 44 45 47 48 50 51 52 53 54 55 56 57 59 60 59 58 57 56 55 54 54 53 53 53 52 51 51 51 52 52 52 53 53 53 54 54 55 57 59 60 60 59 60 61
Wind_Direction
205 212 222 235 252 263 264 262 264 279 270 238 237 248 242 238 244 255 274 269 255 267 275 276 281 274 272 276 275 276 278 277 278 278 279 280 282 285 285 284 286 288 290 293 292 292 294 293 293 295 296 297 298 299 300 300 300 302 302 301 302 303 304 303 302 304 306 306 307 307 305 305 303 303 304 303 302 301 300 299 301 304 302 303 307 305 307
212 217 225 236 249 251 242 239 252 268 262 243 246 251 244 248 253 259 278 277 259 260 267 270 277 278 281 284 281 279 279 278 279 280 280 281 282 285 286 286 288 291 294 295 293 293 295 295 296 298 297 298 301 301 301 301 300 301 301 301 302 302 302 304 306 309 310 311 311 309 307 305 302 303 304 303 303 305 302 300 301 303 300 299 302 301 305
211 215 223 232 238 234 227 233 247 259 272 264 257 254 255 262 264 264 277 284 270 263 264 263 269 275 282 285 281 281 283 282 281 281 283 283 283 286 290 290 291 294 296 297 296 296 297 297 300 302 300 300 302 302 301 301 300 301 301 302 302 300 300 302 304 305 306 307 308 306 305 305 304 305 304 302 302 300 299 300 301 301 300 299 297 298 304
208 213 220 226 228 227 227 234 244 261 287 282 265 267 271 269 269 273 282 287 282 277 277 276 275 274 278 286 287 285 286 288 287 286 287 288 288 290 292 292 294 297 297 296 296 296 297 299 301 301 300 300 302 302 302 302 302 301 302 303 303 302 301 300 297 296 297 300 302 304 306 305 303 304 302 300 299 298 299 300 297 297 300 299 296 297 303
208 212 217 222 225 230 232 234 242 262 289 288 279 288 286 269 265 273 281 287 290 294 294 293 290 283 279 285 289 286 288 293 293 290 290 292 292 293 294 294 293 294 294 296 296 296 299 301 300 299 299 300 303 303 302 303 303 302 302 303 303 302 301 299 296 294 295 298 301 304 305 303 301 302 301 299 298 297 295 293 294 299 301 299 300 301 302
208 211 218 225 230 234 234 233 244 266 292 294 286 288 287 276 271 274 279 282 284 293 297 296 297 295 290 290 292 292 293 294 292 292 296 298 295 294 297 295 290 290 293 296 298 299 301 300 299 300 301 302 305 305 303 303 304 304 303 303 302 301 300 300 299 298 299 300 302 302 302 301 301 301 301 299 297 294 291 290 294 298 296 297 303 304 303
209 216 225 231 232 233 232 236 251 272 291 295 287 278 282 283 280 282 287 285 281 288 295 296 297 300 300 297 294 292 290 290 291 295 300 302 298 295 297 295 292 291 294 298 299 298 300 301 300 300 301 302 304 304 303 303 304 304 304 303 302 300 299 301 302 301 302 302 303 303 302 303 304 302 301 299 295 292 291 293 297 297 294 297 302 303 304
218 225 229 230 229 231 235 242 256 274 290 294 286 278 281 283 280 283 292 293 292 297 300 298 298 301 301 298 295 293 289 289 294 297 296 298 300 297 295 295 295 295 295 296 297 294 295 299 300 299 301 302 301 301 301 303 305 305 303 302 302 300 300 303 304 304 304 306 309 308 305 304 305 304 303 300 298 298 298 299 302 301 299 301 303 304 305
225 225 225 227 228 234 241 248 260 275 288 291 288 283 283 283 283 286 290 293 295 298 299 299 299 300 299 295 295 297 292 290 295 299 296 296 297 294 292 296 301 302 298 294 294 294 295 297 298 297 299 301 301 301 302 302 303 302 302 302 302 301 301 305 307 306 305 310 313 311 308 307 306 306 307 305 303 303 303 305 307 304 303 306 307 307 308
220 220 223 229 233 241 249 256 265 273 282 287 287 286 285 285 289 292 291 293 295 294 298 302 300 296 295 294 295 298 298 296 298 301 302 302 300 296 294 298 303 304 299 294 294 297 298 298 299 300 300 302 303 303 302 302 302 300 300 302 303 302 303 305 307 305 304 309 312 311 312 313 309 308 310 309 306 306 307 309 308 305 306 309 309 308 309
221 227 234 239 244 252 257 262 267 270 275 281 283 284 282 282 289 294 295 295 295 294 298 299 296 294 295 297 298 299 301 300 298 299 302 304 303 302 300 300 302 301 298 297 299 301 300 300 302 303 304 305 306 305 304 306 306 302 300 302 303 304 305 304 304 304 304 308 312 314 315 313 309 309 310 309 309 308 308 309 308 307 306 307 307 308 310
231 238 246 251 255 261 265 268 271 271 273 278 281 283 282 283 289 293 293 292 293 296 297 293 290 294 298 298 298 299 298 298 298 299 302 302 303 303 302 301 301 301 301 302 303 302 302 302 303 303 306 308 308 309 310 311 309 306 303 304 305 305 306 305 305 305 305 311 318 318 313 309 310 311 310 308 308 308 307 307 308 308 306 304 305 307 308
241 248 255 261 265 270 272 274 275 275 275 278 281 282 282 284 290 292 291 293 292 291 294 295 294 296 298 297 298 299 300 300 301 301 302 302 302 302 301 301 300 301 303 305 306 305 304 305 305 304 307 309 310 312 314 313 312 310 309 309 308 307 308 307 307 308 309 313 318 314 309 312 315 313 311 312 313 314 313 311 310 311 309 305 305 308 310
258 264 270 274 276 277 278 278 279 278 277 278 281 283 283 285 290 291 292 296 295 290 293 300 299 296 296 296 298 301 303 303 303 302 302 303 303 301 301 301 301 302 304 305 308 309 307 309 311 311 310 312 313 312 312 312 314 315 314 313 312 312 312 311 310 310 311 311 309 309 314 319 318 314 315 316 316 316 315 312 312 313 311 309 311 313 314
277 282 286 286 286 285 283 282 282 280 277 278 282 286 288 288 290 292 292 296 299 297 295 298 298 296 296 297 298 302 304 304 303 303 303 305 305 303 302 302 303 305 307 309 312 313 312 312 315 315 315 315 314 312 312 313 315 318 318 317 317 317 314 312 311 311 313 313 313 315 320 319 314 312 316 317 315 315 314 312 312 313 315 317 317 316 316
295 298 299 297 295 293 290 287 285 282 279 281 285 289 292 292 293 295 296 296 300 300 297 297 298 299 300 300 299 301 303 304 304 306 308 308 308 306 305 305 307 309 312 315 316 318 318 316 315 314 313 313 312 313 314 315 316 318 320 321 323 322 319 316 313 312 313 314 313 314 314 313 312 313 317 318 316 315 316 314 311 313 319 321 319 317 317
306 307 307 306 303 299 297 293 290 286 283 286 290 292 293 294 294 294 296 297 299 300 298 299 300 301 302 304 303 302 303 304 306 308 309 308 308 309 309 310 312 313 316 319 320 321 321 318 316 315 311 311 313 314 314 316 317 317 319 322 324 323 321 318 314 311 312 311 310 309 309 310 313 315 317 317 315 316 318 315 311 315 320 320 319 318 318
315 316 316 316 311 306 304 299 294 292 290 292 295 296 296 298 297 295 296 298 299 300 301 302 302 302 303 304 303 303 304 306 308 310 311 311 310 311 312 314 316 317 318 320 322 322 321 317 317 316 313 313 317 316 315 317 317 317 319 321 322 321 319 318 314 312 312 309 308 309 310 311 314 315 316 315 315 317 318 314 313 317 319 319 318 318 317
326 324 321 320 316 311 308 303 300 299 298 300 302 302 303 305 303 300 301 301 301 302 303 303 303 303 304 305 306 306 307 309 311 313 316 317 313 313 317 318 319 321 323 324 323 323 323 320 320 321 318 318 321 320 318 317 317 319 321 320 320 319 318 318 317 315 314 312 310 312 313 315 316 315 315 318 319 318 315 313 315 317 317 317 317 317 317
328 325 322 322 320 317 315 312 310 310 309 311 312 310 312 313 310 306 304 304 305 306 306 305 305 305 306 307 308 309 310 312 314 314 317 317 315 320 326 324 321 323 327 327 325 325 325 322 322 324 321 318 320 321 319 318 318 319 318 317 317 316 316 317 316 315 317 317 316 316 315 316 319 319 318 321 320 316 314 314 316 316 316 316 316 316 317
333 331 329 329 328 328 328 326 324 323 321 321 320 318 319 318 315 311 309 307 309 309 308 308 309 309 310 311 312 314 316 317 317 316 318 319 318 323 327 324 321 324 326 327 327 326 325 323 322 323 321 320 321 319 318 320 320 318 317 318 317 316 316 317 316 316 318 317 314 314 314 316 320 321 318 317 316 315 315 316 315 316 317 316 316 316 317
343 341 341 340 337 335 334 332 331 330 327 324 322 322 321 320 318 318 317 317 316 315 313 314 316 317 319 320 321 323 324 325 324 323 326 326 322 322 325 326 325 324 324 327 327 325 324 323 323 322 320 320 320 318 317 319 319 317 319 320 319 316 315 316 315 315 315 313 310 312 314 317 319 319 316 315 315 316 316 316 316 316 317 317 316 316 316
354 352 351 347 342 336 333 330 329 328 325 324 323 323 323 321 321 323 325 326 328 329 328 328 329 329 331 331 331 330 331 332 332 330 332 332 327 324 324 326 326 324 324 325 323 322 322 321 321 322 320 318 319 319 319 318 317 317 319 319 318 317 317 317 316 314 313 312 311 313 315 317 318 317 316 316 317 317 317 317 316 316 317 317 317 316 316
358 354 348 343 339 335 332 329 328 326 324 324 326 328 328 327 328 332 334 334 336 340 341 340 339 338 336 337 339 338 337 337 337 335 335 334 332 329 326 324 324 324 323 322 321 322 322 321 321 322 319 318 319 319 318 317 315 316 320 319 317 318 318 317 316 316 316 315 315 316 317 317 317 318 317 317 318 318 318 317 317 317 317 317 317 317 316
352 347 342 337 334 333 332 330 329 328 327 328 331 335 338 336 336 340 343 341 340 345 345 340 339 341 339 339 341 340 339 337 336 335 334 331 330 328 325 324 323 321 321 320 321 322 322 320 321 321 318 318 319 317 316 317 316 317 320 320 318 319 320 319 317 317 316 314 314 315 316 316 316 317 318 318 318 318 318 317 317 317 317 317 317 317 317
348 342 337 333 331 330 331 330 331 331 331 332 335 339 342 342 342 346 349 347 343 346 346 338 335 336 337 337 337 336 337 336 333 331 331 329 327 325 324 323 323 321 321 322 321 321 321 321 322 321 318 318 320 317 316 317 318 319 321 320 319 320 320 319 319 318 316 315 315 317 317 316 317 318 319 318 318 318 318 318 318 318 318 317 317 317 317
343 338 335 333 331 330 332 333 333 333 334 336 341 344 345 346 345 344 345 344 339 337 339 334 330 331 332 331 331 331 332 332 330 328 328 327 326 325 324 324 323 323 323 323 322 322 323 323 322 319 317 318 319 319 318 318 319 320 319 319 321 322 321 321 321 321 320 319 319 320 319 318 318 319 319 319 319 319 318 319 319 318 318 318 317 317 317
340 338 336 335 333 334 335 335 335 336 339 342 346 349 350 349 346 340 338 339 337 334 333 332 330 330 330 329 329 329 330 330 328 327 327 327 326 325 324 325 325 325 324 323 322 322 323 322 319 319 319 320 319 319 319 319 320 320 320 321 323 324 323 323 323 321 319 319 319 319 318 317 318 319 319 319 319 319 319 319 319 318 318 318 318 318 318
341 338 335 333 332 331 332 333 333 334 336 338 337 336 336 338 341 340 336 335 337 337 336 334 330 327 326 326 327 328 329 329 328 327 326 326 326 325 325 326 325 324 324 323 322 322 321 320 319 320 321 320 319 318 319 320 320 320 321 323 325 324 323 322 321 319 318 318 318 319 318 317 318 319 319 319 319 319 319 319 318 318 319 319 319 319 320
340 337 333 330 329 328 328 331 332 331 331 332 331 331 328 328 332 335 333 330 331 330 329 328 326 325 325 326 326 327 328 329 328 327 326 326 326 325 325 325 325 324 323 323 322 322 321 321 322 322 320 320 321 319 320 321 320 319 321 324 325 324 322 321 321 319 318 318 319 319 318 318 318 318 319 319 319 319 319 319 319 319 320 320 321 322 322
339 337 334 332 332 331 331 333 334 334 333 332 332 331 326 323 325 329 329 326 325 325 326 328 328 326 325 326 326 326 327 328 328 327 327 326 326 326 325 325 325 323 323 322 322 322 322 323 323 323 322 323 324 321 320 322 321 320 323 325 325 323 322 321 320 320 319 319 319 319 318 318 319 319 319 320 320 320 320 320 321 321 322 322 322 322 323
337 336 335 334 335 335 334 334 334 334 334 335 334 330 324 322 324 326 326 324 324 325 326 328 328 325 324 324 324 324 327 328 327 328 328 327 326 327 326 326 325 323 323 323 323 323 323 323 324 323 323 324 324 321 322 326 325 323 324 325 324 323 322 322 321 321 321 321 321 320 320 320 321 320 320 320 321 321 322 322 322 322 322 322 323 323 323
336 334 334 332 332 333 333 332 332 332 332 333 333 331 329 327 327 327 327 325 326 326 326 327 327 324 322 322 322 324 327 328 327 328 328 327 326 326 326 325 325 324 323 323 323 323 324 324 325 325 324 323 322 321 324 327 326 324 324 325 324 324 323 323 323 323 323 322 322 321 320 320 320 320 320 321 322 323 323 323 323 323 323 324 324 325 325
337 335 333 331 329 329 328 328 329 329 328 328 328 328 329 330 329 330 329 325 324 327 329 329 327 323 322 324 324 324 328 328 327 327 327 326 325 326 325 325 325 325 325 324 324 325 325 325 326 325 324 322 322 322 323 325 325 325 325 325 325 324 324 323 324 324 324 323 323 321 320 320 320 321 322 323 324 325 325 324 324 324 324 325 326 327 328
338 337 336 333 331 330 328 327 328 327 326 325 324 324 326 327 328 331 331 328 326 325 326 329 329 326 325 326 324 324 327 328 326 326 325 324 325 326 325 325 325 326 325 325 325 326 327 326 326 326 323 322 323 323 323 324 325 326 326 326 326 326 326 325 324 324 324 324 323 322 321 322 322 324 325 325 326 326 326 326 326 325 325 327 329 329 330
337 337 337 335 334 333 331 329 329 328 326 324 322 322 323 324 325 328 332 335 334 329 325 327 329 327 326 325 322 323 326 327 325 325 325 324 324 326 326 327 327 326 326 326 326 327 327 326 326 325 324 323 324 324 325 326 327 326 326 326 327 327 326 325 325 324 324 324 323 323 323 324 325 325 326 326 327 327 327 327 327 327 327 329 331 332 332
337 337 337 337 337 337 335 332 330 329 327 324 322 323 325 324 324 326 329 333 336 335 333 330 326 324 324 323 322 323 325 325 325 326 325 325 325 326 327 328 327 326 328 328 327 326 327 326 326 325 323 324 325 326 326 327 327 326 326 326 327 327 326 326 325 325 324 324 325 325 326 326 326 327 327 327 328 328 328 328 329 329 330 331 333 333 333
340 339 339 339 340 339 336 333 331 331 330 328 328 328 328 327 326 326 326 327 329 332 334 332 326 323 324 323 322 324 325 325 325 327 327 327 327 327 328 329 327 327 328 327 324 325 327 326 325 323 321 322 325 327 327 328 327 326 326 326 326 327 327 327 326 326 326 326 327 328 328 328 328 328 328 328 329 329 329 329 330 331 332 333 334 333 333
344 342 342 342 342 338 335 335 335 336 335 335 334 331 329 329 328 325 324 325 325 327 329 329 325 324 325 324 323 325 327 327 327 328 328 328 328 328 328 328 328 328 329 326 325 326 327 325 323 322 321 322 325 327 327 327 327 326 326 326 327 327 327 327 327 327 326 327 327 328 329 328 328 328 328 328 328 328 328 329 331 333 333 333 333 333 334
347 345 344 344 343 340 339 339 341 341 340 339 336 333 331 331 329 324 323 325 325 324 325 326 324 324 326 326 324 324 327 328 328 327 327 327 327 328 329 328 327 328 328 325 325 326 326 324 323 322 321 322 325 326 327 327 327 327 327 327 327 328 328 327 327 327 327 326 327 328 328 328 328 328 328 327 327 328 329 331 333 333 333 333 333 333 333
348 347 346 345 344 343 343 345 345 343 339 338 336 333 331 329 326 325 326 326 323 321 323 326 326 325 326 326 324 324 326 328 328 327 327 327 327 329 329 327 327 328 326 324 325 327 327 325 324 322 321 323 325 326 326 327 327 327 327 327 328 328 328 328 328 328 328 327 327 327 327 327 328 328 327 327 328 330 331 332 332 332 332 332 332 332 333
348 348 348 348 348 347 346 347 346 342 337 336 334 331 328 326 325 326 326 324 322 322 324 327 327 325 325 326 325 324 325 327 328 329 328 328 328 329 328 327 328 328 325 324 326 328 328 326 325 322 322 324 326 326 327 327 327 327 327 328 328 329 329 328 328 328 328 328 327 327 327 328 328 327 327 329 331 331 331 331 331 331 331 331 331 332 334
349 349 349 349 349 348 345 343 342 340 336 334 333 330 328 327 326 325 323 322 323 325 326 326 326 326 326 327 327 325 325 327 328 328 328 328 328 329 330 329 328 327 326 326 328 328 327 326 324 323 324 326 327 327 327 327 327 327 328 328 329 329 329 329 329 328 328 327 327 327 328 328 327 327 329 331 331 330 330 330 330 330 330 331 332 334 335
348 348 348 346 345 344 341 338 338 339 335 332 331 330 327 326 324 323 322 323 325 327 327 327 328 327 326 326 327 327 326 328 329 329 328 328 329 329 329 327 326 326 326 327 328 327 326 324 323 324 325 326 327 327 328 328 328 328 328 329 329 330 329 329 329 328 328 327 327 327 327 327 327 328 329 330 330 329 329 329 330 330 330 332 333 334 335
347 346 346 344 342 341 338 335 335 336 333 329 327 326 324 323 322 321 322 324 325 326 326 328 328 326 325 326 328 328 327 329 329 328 328 329 330 329 327 326 326 328 328 328 327 327 325 324 324 325 327 327 327 328 328 328 328 328 328 329 330 330 329 329 329 328 328 328 328 327 327 327 327 328 328 328 328 328 328 328 329 330 331 332 333 333 334
347 344 345 343 338 337 337 335 333 332 329 326 325 325 324 323 323 322 323 326 327 326 326 327 327 326 326 328 329 328 329 330 329 328 329 330 329 327 327 327 329 330 329 328 327 326 325 324 325 327 328 328 327 328 328 328 328 329 330 330 330 329 329 329 329 328 328 327 327 327 327 327 327 327 327 327 328 328 328 329 330 331 331 332 332 333 333
345 342 343 341 337 336 337 334 331 329 328 326 325 326 326 326 326 327 327 327 327 326 326 327 328 327 327 329 329 328 329 330 329 328 329 330 328 327 329 330 329 329 329 328 326 325 324 325 327 328 328 327 327 327 328 328 329 330 330 330 329 329 329 329 329 328 328 327 327 327 327 327 326 326 326 327 328 328 329 329 330 331 331 331 332 332 333
344 341 341 339 335 334 334 333 331 331 331 330 329 329 330 331 332 331 329 328 328 328 329 330 331 330 329 329 329 328 328 330 330 329 329 330 329 329 330 330 329 327 327 327 326 325 325 327 328 328 327 327 327 327 328 329 330 331 330 330 329 328 328 328 328 328 328 328 328 327 327 327 326 326 327 327 327 328 329 329 330 331 331 331 332 332 333
347 343 341 339 336 334 334 333 332 332 333 334 334 335 336 336 334 331 330 330 331 330 329 330 331 330 329 329 329 329 329 330 330 330 330 331 331 329 329 329 328 327 327 326 326 326 327 327 327 327 327 327 328 328 329 330 330 330 330 329 329 328 328 328 328 328 328 328 327 327 327 327 327 327 327 327 327 328 329 329 330 331 331 331 332 332 332
347 344 341 339 338 335 333 333 333 333 335 337 338 337 337 336 333 332 332 333 332 331 331 332 331 330 329 330 331 330 330 330 330 331 331 331 330 330 329 329 327 326 326 327 327 327 327 327 327 326 327 328 328 329 329 330 330 329 329 329 329 328 328 328 328 328 328 328 327 327 327 327 327 327 327 327 328 328 329 330 330 331 331 332 332 332 332
343 342 340 339 338 336 335 335 336 336 337 337 337 335 334 333 332 331 332 333 332 332 332 331 331 331 332 332 331 330 329 330 331 332 330 329 329 330 329 327 326 326 327 327 327 327 327 327 327 327 327 328 328 329 329 330 330 329 329 329 329 329 329 329 328 328 328 328 328 328 328 328 328 328 328 328 328 329 329 330 331 331 331 332 332 332 333
340 340 339 338 338 338 338 338 338 338 337 336 334 333 333 332 331 330 331 333 334 333 332 331 332 333 333 331 330 330 330 331 331 331 329 328 329 330 328 326 326 327 327 326 327 327 327 327 327 328 328 328 328 328 329 329 330 330 330 330 330 330 329 329 329 329 329 329 329 329 329 328 328 329 329 329 329 329 329 329 330 331 332 332 332 333 333